Terminal Aerodrome Forecast
Issued by NWS

Home | Current Version | Previous Version | Text Only | Print | Product List | Glossary On
Versions: 1 2 3 4 5 6 7 8 9 10 11 12 13 14 15 16 17 18 19 20 21 22 23 24 25 26 27 28 29 30 31 32 33 34 35 36 37 38 39 40 41 42 43 44 45 46 47 48 49 50
000
FTUS41 KCTP 260305 AAC
TAFBFD
TAF AMD
KBFD 260305Z 2603/2624 25007KT P6SM OVC020
     FM260900 25006KT P6SM OVC018
     FM261300 23007KT P6SM BKN015
     FM261700 23007KT P6SM SCT025=

USA.gov is the U.S. government's official web portal to all federal, state and local government web resources and services.